QPF
0.00 0.00 0.00 0.00 0.00 0.00 0.00 0.00 0.00 0.00 0.00 0.00 0.00 0.00 0.00 0.00 0.00 0.00 0.00 0.00 0.00 0.00 0.00 0.00 0.00 0.00 0.00 0.00 0.00 0.00 0.00 0.00 0.00 0.00 0.00 0.00 0.00 0.00 0.00 0.00 0.00 0.00 0.00 0.00 0.00
0.00 0.00 0.00 0.00 0.00 0.00 0.00 0.00 0.00 0.00 0.00 0.00 0.00 0.00 0.00 0.00 0.00 0.00 0.00 0.00 0.00 0.00 0.00 0.00 0.00 0.00 0.00 0.00 0.00 0.00 0.00 0.00 0.00 0.00 0.00 0.00 0.00 0.00 0.00 0.00 0.00 0.00 0.00 0.00 0.00
0.00 0.00 0.00 0.00 0.00 0.00 0.00 0.00 0.00 0.00 0.00 0.00 0.00 0.00 0.00 0.00 0.00 0.00 0.00 0.00 0.00 0.00 0.00 0.00 0.00 0.00 0.00 0.00 0.00 0.00 0.00 0.00 0.00 0.00 0.00 0.00 0.00 0.00 0.00 0.00 0.00 0.00 0.00 0.00 0.00
0.00 0.00 0.00 0.00 0.00 0.00 0.00 0.00 0.00 0.00 0.00 0.00 0.00 0.00 0.00 0.00 0.00 0.00 0.00 0.00 0.00 0.00 0.00 0.00 0.00 0.00 0.00 0.00 0.00 0.00 0.00 0.00 0.00 0.00 0.00 0.00 0.00 0.00 0.00 0.00 0.00 0.00 0.00 0.00 0.00
0.00 0.00 0.00 0.00 0.00 0.00 0.00 0.00 0.00 0.00 0.00 0.00 0.00 0.00 0.00 0.00 0.00 0.00 0.00 0.00 0.00 0.00 0.00 0.00 0.00 0.00 0.00 0.00 0.00 0.00 0.00 0.00 0.00 0.00 0.00 0.00 0.00 0.00 0.00 0.00 0.00 0.00 0.00 0.00 0.00
0.00 0.00 0.00 0.00 0.00 0.00 0.00 0.00 0.00 0.00 0.00 0.00 0.00 0.00 0.00 0.00 0.00 0.00 0.00 0.00 0.00 0.00 0.00 0.00 0.00 0.00 0.00 0.00 0.00 0.00 0.00 0.00 0.00 0.00 0.00 0.00 0.00 0.00 0.00 0.00 0.00 0.00 0.00 0.00 0.00
0.00 0.00 0.00 0.00 0.00 0.00 0.00 0.00 0.00 0.00 0.00 0.00 0.00 0.00 0.00 0.00 0.00 0.00 0.00 0.00 0.00 0.00 0.00 0.00 0.00 0.00 0.00 0.00 0.00 0.00 0.00 0.00 0.00 0.00 0.00 0.00 0.00 0.00 0.00 0.00 0.00 0.00 0.00 0.00 0.00
0.00 0.00 0.00 0.00 0.00 0.00 0.00 0.00 0.00 0.00 0.00 0.00 0.00 0.00 0.00 0.00 0.00 0.00 0.00 0.00 0.00 0.00 0.00 0.00 0.00 0.00 0.00 0.00 0.00 0.00 0.00 0.00 0.00 0.00 0.00 0.00 0.00 0.00 0.00 0.00 0.00 0.00 0.00 0.00 0.00
0.00 0.00 0.00 0.00 0.00 0.00 0.00 0.00 0.00 0.00 0.00 0.00 0.00 0.00 0.00 0.00 0.00 0.00 0.00 0.00 0.00 0.00 0.00 0.00 0.00 0.00 0.00 0.00 0.00 0.00 0.00 0.00 0.00 0.00 0.00 0.00 0.00 0.00 0.00 0.00 0.00 0.00 0.00 0.00 0.00
0.00 0.00 0.00 0.00 0.00 0.00 0.00 0.00 0.00 0.00 0.00 0.00 0.00 0.00 0.00 0.00 0.00 0.00 0.00 0.00 0.00 0.00 0.00 0.00 0.00 0.00 0.00 0.00 0.00 0.00 0.00 0.00 0.00 0.00 0.00 0.00 0.00 0.00 0.00 0.00 0.00 0.00 0.00 0.00 0.00
0.00 0.00 0.00 0.00 0.00 0.00 0.00 0.00 0.00 0.00 0.00 0.00 0.00 0.00 0.00 0.00 0.00 0.00 0.00 0.00 0.00 0.00 0.00 0.00 0.00 0.00 0.00 0.00 0.00 0.00 0.00 0.00 0.00 0.00 0.00 0.00 0.00 0.00 0.00 0.00 0.00 0.00 0.00 0.00 0.00
0.00 0.00 0.00 0.00 0.00 0.00 0.00 0.00 0.00 0.00 0.00 0.00 0.00 0.00 0.00 0.00 0.00 0.00 0.00 0.00 0.00 0.00 0.00 0.00 0.00 0.00 0.00 0.00 0.00 0.00 0.00 0.00 0.00 0.00 0.00 0.00 0.00 0.00 0.00 0.00 0.00 0.00 0.00 0.00 0.00
0.00 0.00 0.00 0.00 0.00 0.00 0.00 0.00 0.00 0.00 0.00 0.00 0.00 0.00 0.00 0.00 0.00 0.00 0.00 0.00 0.00 0.00 0.00 0.00 0.00 0.00 0.00 0.00 0.00 0.00 0.00 0.00 0.00 0.00 0.00 0.00 0.00 0.00 0.00 0.00 0.00 0.00 0.00 0.00 0.00
0.00 0.00 0.00 0.00 0.00 0.00 0.00 0.00 0.00 0.00 0.00 0.00 0.00 0.00 0.00 0.00 0.00 0.00 0.00 0.00 0.00 0.00 0.00 0.00 0.00 0.00 0.00 0.00 0.00 0.00 0.00 0.00 0.00 0.00 0.00 0.00 0.00 0.00 0.00 0.00 0.00 0.00 0.00 0.00 0.00
0.00 0.00 0.00 0.00 0.00 0.00 0.00 0.00 0.00 0.00 0.00 0.00 0.00 0.00 0.00 0.00 0.00 0.00 0.00 0.00 0.00 0.00 0.00 0.00 0.00 0.00 0.00 0.00 0.00 0.00 0.00 0.00 0.00 0.00 0.00 0.00 0.00 0.00 0.00 0.00 0.00 0.00 0.00 0.00 0.00
0.00 0.00 0.00 0.00 0.00 0.00 0.00 0.00 0.00 0.00 0.00 0.00 0.00 0.00 0.00 0.00 0.00 0.00 0.00 0.00 0.00 0.00 0.00 0.00 0.00 0.00 0.00 0.00 0.00 0.00 0.00 0.00 0.00 0.00 0.00 0.00 0.00 0.00 0.00 0.00 0.00 0.00 0.00 0.00 0.00
0.00 0.00 0.00 0.00 0.00 0.00 0.00 0.00 0.00 0.00 0.00 0.00 0.00 0.00 0.00 0.00 0.00 0.00 0.00 0.00 0.00 0.00 0.00 0.00 0.00 0.00 0.00 0.00 0.00 0.01 0.01 0.00 0.00 0.00 0.00 0.00 0.00 0.00 0.00 0.00 0.00 0.00 0.00 0.00 0.00
0.00 0.00 0.00 0.00 0.00 0.00 0.00 0.00 0.00 0.00 0.00 0.00 0.00 0.00 0.00 0.00 0.00 0.00 0.00 0.00 0.00 0.00 0.00 0.00 0.00 0.00 0.00 0.00 0.00 0.00 0.01 0.00 0.00 0.00 0.00 0.00 0.00 0.00 0.00 0.00 0.00 0.00 0.00 0.00 0.00
0.00 0.00 0.00 0.00 0.00 0.00 0.00 0.00 0.00 0.00 0.00 0.00 0.00 0.00 0.00 0.00 0.00 0.00 0.00 0.00 0.00 0.00 0.00 0.00 0.00 0.00 0.00 0.00 0.00 0.00 0.01 0.00 0.00 0.00 0.00 0.00 0.00 0.00 0.00 0.00 0.00 0.00 0.00 0.00 0.00
0.00 0.00 0.00 0.00 0.00 0.00 0.00 0.00 0.00 0.00 0.00 0.00 0.00 0.00 0.00 0.00 0.00 0.00 0.00 0.00 0.00 0.00 0.00 0.00 0.00 0.00 0.00 0.00 0.00 0.00 0.01 0.00 0.00 0.00 0.00 0.00 0.00 0.00 0.00 0.00 0.00 0.00 0.00 0.00 0.00
0.00 0.00 0.00 0.00 0.00 0.01 0.00 0.00 0.00 0.00 0.00 0.00 0.00 0.00 0.00 0.00 0.00 0.00 0.02 0.03 0.02 0.00 0.00 0.00 0.00 0.00 0.00 0.00 0.00 0.00 0.01 0.00 0.00 0.00 0.00 0.01 0.02 0.00 0.00 0.00 0.00 0.00 0.00 0.00 0.00
0.00 0.00 0.00 0.00 0.01 0.01 0.00 0.00 0.00 0.00 0.00 0.00 0.00 0.00 0.00 0.00 0.00 0.00 0.00 0.00 0.00 0.00 0.00 0.00 0.00 0.00 0.00 0.00 0.00 0.00 0.00 0.00 0.00 0.00 0.00 0.00 0.00 0.00 0.00 0.00 0.00 0.00 0.00 0.00 0.00
0.00 0.00 0.00 0.00 0.00 0.00 0.00 0.00 0.00 0.00 0.00 0.00 0.00 0.00 0.00 0.00 0.00 0.00 0.00 0.00 0.00 0.00 0.00 0.00 0.00 0.00 0.00 0.00 0.00 0.00 0.00 0.00 0.01 0.00 0.00 0.00 0.00 0.00 0.00 0.00 0.00 0.00 0.00 0.00 0.00
0.00 0.00 0.00 0.00 0.00 0.01 0.01 0.01 0.01 0.02 0.02 0.01 0.00 0.00 0.00 0.00 0.00 0.00 0.00 0.00 0.00 0.00 0.00 0.00 0.00 0.00 0.00 0.01 0.00 0.01 0.02 0.01 0.01 0.00 0.00 0.00 0.01 0.01 0.00 0.00 0.00 0.00 0.00 0.00 0.01
0.00 0.00 0.00 0.00 0.00 0.01 0.02 0.01 0.01 0.01 0.01 0.01 0.00 0.01 0.01 0.00 0.00 0.00 0.00 0.00 0.00 0.00 0.00 0.00 0.00 0.00 0.00 0.00 0.00 0.00 0.00 0.00 0.01 0.00 0.00 0.00 0.00 0.02 0.01 0.00 0.00 0.00 0.00 0.00 0.00
0.00 0.00 0.00 0.00 0.00 0.00 0.01 0.01 0.01 0.01 0.01 0.01 0.01 0.00 0.01 0.00 0.00 0.00 0.00 0.00 0.00 0.01 0.00 0.00 0.00 0.00 0.00 0.00 0.00 0.00 0.00 0.01 0.00 0.00 0.01 0.00 0.00 0.04 0.01 0.00 0.00 0.00 0.00 0.00 0.00
0.00 0.00 0.00 0.00 0.00 0.00 0.00 0.01 0.01 0.00 0.00 0.01 0.00 0.00 0.00 0.00 0.02 0.01 0.01 0.01 0.00 0.00 0.01 0.01 0.01 0.00 0.00 0.00 0.00 0.00 0.00 0.00 0.00 0.00 0.01 0.01 0.01 0.01 0.00 0.01 0.00 0.00 0.00 0.00 0.00
MSLP
1020.28 1020.15 1019.87 1019.59 1019.47 1018.97 1018.42 1017.99 1017.72 1017.30 1016.77 1016.42 1015.99 1015.45 1015.06 1014.73 1013.84 1013.10 1011.83 1009.18 1009.19 1009.09 1009.29 1009.26 1009.52 1009.71 1009.97 1010.18 1010.18 1010.71 1011.32 1010.72 1009.95 1008.99 1007.58 1006.54 1006.26 1005.20 1004.93 1004.88 1004.84 1004.46 1004.28 1003.97 1004.46
1020.46 1020.15 1019.96 1019.70 1019.25 1019.00 1018.55 1017.94 1017.29 1017.00 1016.54 1015.97 1015.58 1015.25 1014.77 1014.32 1013.61 1011.87 1008.94 1008.43 1008.67 1009.14 1009.38 1009.27 1009.55 1009.84 1010.24 1010.20 1010.12 1010.38 1010.27 1009.44 1008.54 1007.93 1007.17 1006.68 1006.37 1005.52 1005.26 1004.91 1004.69 1005.01 1004.63 1004.34 1004.79
1020.60 1020.21 1019.98 1019.63 1019.28 1018.76 1018.38 1017.89 1017.36 1016.68 1016.11 1015.85 1015.46 1014.94 1014.37 1014.13 1013.34 1009.47 1008.26 1008.59 1008.64 1008.84 1009.10 1009.29 1009.50 1009.84 1010.23 1010.07 1009.90 1009.33 1008.24 1008.26 1007.72 1007.16 1007.05 1006.55 1005.96 1005.88 1005.41 1004.92 1004.80 1005.15 1004.98 1004.94 1005.30
1020.61 1020.18 1019.94 1019.57 1019.17 1018.66 1018.22 1017.65 1017.00 1016.45 1015.92 1015.45 1015.30 1014.95 1014.23 1014.40 1012.31 1008.67 1008.40 1008.53 1008.49 1008.75 1009.30 1009.31 1009.56 1009.87 1009.88 1009.68 1009.23 1009.06 1007.97 1007.73 1007.24 1006.96 1006.89 1006.41 1005.93 1005.25 1005.25 1004.41 1004.26 1004.36 1004.70 1004.80 1005.23
1020.49 1020.17 1019.76 1019.38 1018.89 1018.27 1017.70 1016.99 1016.40 1015.92 1015.55 1015.25 1015.12 1014.98 1014.68 1014.00 1011.16 1008.66 1008.52 1008.56 1008.44 1008.91 1009.13 1009.13 1009.23 1009.38 1009.30 1009.03 1008.78 1008.30 1007.71 1007.15 1006.65 1006.58 1006.30 1005.90 1005.55 1005.07 1004.49 1003.76 1003.87 1003.98 1004.40 1004.42 1004.69
1020.46 1020.07 1019.77 1019.19 1018.66 1017.88 1017.17 1016.64 1015.90 1015.34 1014.93 1014.69 1014.87 1014.86 1015.07 1013.40 1008.90 1008.65 1008.70 1008.66 1008.59 1008.62 1008.65 1008.68 1008.42 1008.52 1008.71 1008.60 1008.38 1007.30 1006.98 1006.43 1006.06 1005.80 1005.80 1005.65 1004.77 1005.03 1003.65 1003.20 1003.57 1003.97 1004.18 1004.01 1004.27
1020.26 1019.97 1019.57 1019.10 1018.23 1017.48 1016.69 1015.96 1015.20 1014.57 1014.29 1013.84 1014.18 1014.39 1014.06 1011.54 1009.05 1008.61 1008.98 1008.46 1008.20 1008.32 1008.40 1008.15 1008.08 1008.60 1008.58 1008.22 1007.44 1006.98 1006.67 1006.05 1005.78 1005.23 1005.06 1005.05 1004.33 1004.28 1003.21 1003.04 1003.24 1003.64 1003.93 1003.86 1003.91
1020.08 1019.73 1019.28 1018.75 1018.08 1017.21 1016.19 1015.09 1014.17 1013.65 1013.13 1012.95 1013.33 1013.83 1012.26 1009.35 1008.88 1008.87 1008.29 1007.88 1007.68 1007.80 1008.01 1007.78 1007.97 1008.45 1008.59 1007.81 1007.42 1007.08 1006.47 1006.17 1005.17 1004.99 1004.58 1004.87 1003.48 1003.10 1002.56 1002.44 1002.73 1003.03 1003.44 1003.51 1003.53
1019.80 1019.51 1018.98 1018.49 1017.77 1016.84 1015.65 1014.31 1013.26 1013.00 1012.36 1012.76 1013.26 1013.38 1010.62 1008.68 1008.61 1007.65 1007.69 1007.83 1007.52 1007.33 1007.33 1007.45 1007.96 1008.31 1008.44 1008.45 1008.32 1007.41 1006.79 1006.17 1005.46 1004.59 1004.49 1004.35 1003.44 1002.39 1001.97 1002.15 1002.19 1002.55 1002.85 1002.92 1003.07
1019.54 1019.23 1018.70 1018.14 1017.54 1016.66 1015.22 1013.49 1012.35 1012.76 1012.93 1012.91 1012.89 1013.39 1009.89 1008.42 1007.86 1007.39 1007.42 1007.50 1007.50 1007.35 1007.37 1007.73 1008.32 1008.58 1008.80 1009.00 1008.25 1008.04 1007.21 1006.35 1005.43 1004.72 1004.38 1004.26 1003.40 1002.22 1001.86 1001.81 1001.49 1001.87 1002.28 1002.57 1002.66
1019.48 1019.21 1018.63 1018.01 1017.48 1016.59 1015.32 1013.97 1013.63 1013.22 1012.97 1012.66 1011.83 1011.09 1009.22 1008.39 1007.83 1007.41 1007.42 1007.38 1007.61 1007.71 1008.06 1008.35 1008.84 1008.83 1008.76 1008.55 1008.50 1008.00 1007.24 1006.42 1005.58 1004.87 1004.78 1004.19 1003.42 1002.14 1001.58 1001.38 1001.11 1001.26 1001.22 1001.94 1002.05
1019.38 1019.01 1018.56 1017.99 1017.41 1016.79 1015.98 1015.89 1016.91 1017.32 1013.83 1011.60 1010.15 1009.59 1008.81 1009.02 1008.70 1007.55 1007.50 1007.97 1008.11 1008.52 1008.78 1009.05 1008.73 1008.76 1008.65 1008.61 1008.52 1007.98 1007.23 1006.06 1005.21 1004.78 1004.51 1004.09 1003.19 1001.80 1001.07 1000.79 1000.37 1000.02 1000.12 1000.81 1001.37
1019.32 1018.95 1018.57 1017.94 1017.20 1017.28 1017.40 1017.07 1016.87 1016.57 1015.18 1010.11 1008.92 1008.04 1007.49 1008.17 1008.29 1007.03 1007.39 1007.51 1008.11 1008.86 1009.05 1009.14 1008.66 1008.48 1008.46 1008.18 1008.07 1007.68 1007.11 1006.26 1005.47 1005.28 1004.73 1004.24 1002.88 1001.48 1000.10 999.93 999.46 999.09 999.17 999.64 1000.18
1019.34 1019.08 1018.52 1017.99 1017.55 1018.02 1017.58 1017.01 1016.41 1016.21 1014.82 1010.09 1008.08 1006.70 1007.08 1007.31 1007.44 1006.46 1006.58 1007.09 1008.03 1008.53 1009.15 1009.26 1008.58 1008.41 1008.28 1007.97 1007.57 1007.01 1006.68 1006.24 1005.68 1005.58 1004.94 1004.11 1002.99 1001.45 1000.31 999.48 998.90 998.86 999.22 999.41 999.83
1019.43 1019.09 1018.97 1018.55 1018.99 1018.63 1018.15 1017.23 1016.23 1015.85 1013.76 1008.38 1006.80 1005.73 1006.15 1006.63 1006.14 1006.22 1006.33 1006.89 1007.63 1008.32 1009.21 1008.66 1008.45 1008.35 1008.08 1007.49 1007.15 1006.69 1006.49 1006.36 1005.89 1005.66 1005.33 1004.45 1003.79 1000.85 1000.12 999.39 998.71 998.75 998.74 998.99 998.91
1019.44 1019.13 1018.89 1019.07 1019.19 1018.51 1018.12 1017.16 1016.40 1016.04 1012.23 1008.31 1006.53 1006.38 1006.51 1006.23 1006.06 1006.22 1006.53 1006.82 1007.42 1008.28 1008.65 1008.37 1007.91 1007.79 1007.25 1006.91 1006.80 1006.94 1006.88 1006.65 1006.26 1005.97 1005.11 1004.06 1003.44 1000.65 999.91 998.97 998.07 997.78 997.91 998.25 998.32
1019.36 1019.23 1018.97 1018.97 1019.02 1018.33 1018.20 1017.76 1016.94 1015.26 1011.18 1009.38 1008.13 1007.54 1006.97 1006.40 1006.37 1006.27 1006.70 1007.20 1007.79 1008.48 1008.49 1007.95 1007.20 1006.90 1006.83 1006.88 1006.84 1007.21 1007.67 1007.08 1006.77 1006.03 1004.38 1003.16 1002.59 1000.23 999.61 998.79 998.08 997.52 997.20 997.54 997.74
1019.30 1019.22 1018.66 1018.43 1018.35 1018.62 1018.72 1018.34 1017.02 1013.86 1012.09 1010.34 1009.29 1007.98 1007.16 1006.54 1006.31 1006.36 1006.85 1007.45 1007.71 1008.11 1008.16 1007.81 1006.92 1006.49 1006.04 1006.19 1006.46 1006.65 1007.65 1007.29 1006.45 1005.57 1004.62 1003.32 1001.51 1000.14 999.26 998.56 997.92 997.03 996.55 996.25 997.25
1019.33 1019.41 1018.86 1018.19 1018.21 1018.64 1019.11 1018.37 1015.79 1014.16 1012.84 1011.76 1010.04 1008.95 1007.94 1007.33 1007.12 1006.74 1006.90 1006.92 1006.99 1007.45 1007.93 1007.34 1006.50 1005.71 1005.52 1005.63 1006.37 1006.97 1007.10 1007.61 1007.04 1006.33 1005.24 1003.42 1001.41 999.84 999.52 999.05 998.35 997.48 996.62 996.31 996.55
1019.92 1019.66 1018.94 1018.07 1018.20 1018.64 1018.97 1017.57 1016.02 1014.47 1013.72 1012.72 1011.71 1010.63 1009.68 1008.88 1007.99 1007.55 1006.86 1006.29 1006.55 1006.66 1006.79 1006.86 1006.50 1005.54 1005.26 1005.79 1006.64 1007.10 1007.23 1007.57 1007.21 1006.55 1005.49 1003.55 1002.43 1002.10 1001.24 1000.49 1000.12 999.36 998.35 997.39 997.42
1020.14 1019.79 1018.62 1018.03 1018.13 1018.99 1018.67 1017.63 1016.35 1015.13 1014.41 1013.55 1012.64 1011.76 1010.64 1010.33 1009.22 1008.11 1006.97 1006.64 1006.43 1006.39 1006.51 1006.71 1006.66 1006.14 1005.71 1005.69 1005.79 1006.95 1006.91 1007.17 1006.92 1006.51 1005.38 1004.27 1003.50 1002.93 1002.84 1002.16 1001.56 1000.99 999.82 998.66 998.65
1020.29 1020.21 1018.75 1018.33 1019.20 1018.89 1018.44 1017.60 1016.80 1015.68 1015.05 1014.27 1013.24 1012.59 1011.75 1011.23 1009.98 1008.55 1007.63 1006.47 1006.14 1006.17 1006.67 1006.98 1007.00 1006.78 1005.94 1004.84 1004.81 1005.47 1006.39 1006.66 1006.60 1006.40 1005.81 1005.08 1004.05 1003.41 1003.35 1002.80 1002.45 1001.98 1001.41 1000.25 1000.37
1020.51 1020.20 1018.84 1018.80 1019.30 1018.96 1018.35 1017.59 1016.99 1016.20 1015.52 1014.68 1013.65 1012.78 1011.97 1011.56 1011.44 1009.13 1007.81 1006.38 1006.33 1006.41 1006.68 1006.91 1007.34 1007.45 1006.14 1005.36 1005.26 1005.86 1006.16 1006.57 1006.55 1006.29 1005.66 1005.26 1004.36 1003.78 1003.69 1003.57 1003.47 1003.06 1002.87 1002.55 1002.59
1020.64 1020.61 1019.90 1019.56 1019.25 1018.94 1018.74 1017.60 1016.96 1016.01 1015.27 1014.67 1014.00 1013.30 1012.76 1011.92 1011.23 1010.26 1008.70 1007.30 1007.07 1006.75 1006.91 1007.04 1007.82 1008.31 1008.25 1007.64 1007.51 1006.71 1006.42 1006.16 1006.11 1006.06 1005.52 1004.95 1004.31 1004.22 1004.43 1004.74 1004.71 1004.52 1004.46 1004.29 1004.42
1020.45 1020.46 1020.30 1020.05 1019.45 1018.97 1018.50 1017.80 1016.77 1016.00 1015.18 1014.67 1013.99 1013.54 1013.28 1012.37 1011.37 1010.91 1009.11 1008.29 1007.75 1007.47 1007.56 1007.94 1008.66 1008.95 1008.58 1007.99 1007.55 1007.00 1006.44 1006.19 1006.13 1005.79 1005.60 1004.46 1004.20 1003.88 1004.74 1005.50 1005.98 1005.79 1005.59 1005.40 1005.81
1020.12 1020.48 1020.18 1019.96 1019.39 1018.85 1018.26 1017.53 1016.97 1016.58 1015.78 1014.61 1014.16 1013.69 1013.35 1012.75 1011.89 1011.18 1009.74 1008.96 1008.40 1008.19 1008.33 1008.74 1009.44 1009.62 1009.20 1008.22 1007.64 1006.77 1005.84 1005.28 1005.25 1005.42 1005.51 1004.92 1004.16 1003.96 1004.91 1005.63 1006.46 1006.89 1006.75 1006.71 1007.37
1019.86 1019.85 1019.91 1019.77 1019.47 1019.16 1018.29 1017.51 1016.95 1016.60 1015.15 1014.43 1014.12 1013.96 1013.02 1012.19 1011.62 1011.04 1010.26 1009.56 1009.29 1008.91 1008.93 1009.38 1009.85 1010.23 1009.81 1008.83 1007.82 1006.38 1004.95 1004.45 1004.10 1004.41 1004.34 1004.42 1004.00 1004.29 1005.04 1005.43 1006.50 1007.81 1008.01 1008.55 1009.11
Thickness
5594 5593 5594 5596 5595 5600 5606 5607 5609 5613 5617 5620 5622 5626 5628 5631 5638 5642 5650 5673 5672 5675 5672 5674 5670 5670 5669 5666 5668 5662 5643 5638 5654 5662 5675 5690 5682 5696 5702 5696 5696 5704 5706 5717 5717
5582 5582 5582 5582 5586 5588 5592 5598 5603 5604 5608 5613 5615 5616 5619 5624 5630 5639 5668 5671 5669 5665 5663 5662 5658 5658 5651 5653 5656 5649 5638 5650 5663 5668 5669 5672 5671 5681 5683 5684 5690 5693 5702 5709 5711
5568 5570 5570 5572 5574 5579 5581 5585 5589 5595 5600 5603 5606 5609 5612 5614 5618 5651 5663 5662 5661 5658 5657 5655 5652 5649 5642 5644 5646 5649 5658 5659 5663 5665 5661 5664 5667 5673 5671 5672 5684 5681 5691 5698 5700
5556 5559 5558 5559 5561 5564 5568 5572 5578 5584 5589 5594 5596 5600 5604 5602 5624 5650 5653 5651 5651 5651 5645 5644 5641 5636 5635 5635 5641 5636 5653 5655 5656 5655 5650 5654 5664 5662 5665 5680 5689 5690 5691 5696 5695
5545 5546 5548 5548 5551 5555 5559 5565 5570 5574 5579 5583 5585 5587 5591 5592 5612 5642 5644 5642 5643 5640 5638 5636 5632 5630 5628 5632 5632 5634 5643 5646 5650 5646 5647 5653 5653 5658 5663 5686 5686 5689 5692 5697 5696
5532 5533 5533 5537 5540 5546 5550 5552 5559 5565 5572 5572 5571 5574 5573 5578 5629 5632 5632 5632 5633 5633 5632 5631 5632 5632 5627 5626 5623 5638 5639 5641 5644 5645 5643 5641 5655 5649 5673 5686 5683 5684 5688 5694 5693
5519 5519 5521 5524 5531 5537 5541 5546 5553 5559 5565 5566 5563 5564 5569 5585 5616 5622 5619 5624 5627 5627 5625 5628 5628 5620 5622 5618 5630 5632 5624 5631 5633 5640 5640 5642 5635 5639 5677 5679 5678 5680 5685 5689 5691
5508 5508 5511 5516 5521 5528 5536 5544 5551 5557 5561 5562 5560 5558 5573 5601 5606 5609 5617 5620 5622 5622 5620 5622 5620 5613 5610 5618 5618 5617 5620 5608 5632 5635 5643 5630 5631 5657 5673 5676 5672 5678 5682 5686 5689
5499 5499 5502 5506 5513 5522 5530 5540 5548 5552 5556 5554 5552 5549 5572 5597 5598 5610 5611 5609 5614 5617 5616 5616 5610 5603 5604 5598 5592 5600 5592 5601 5613 5635 5630 5625 5627 5658 5672 5670 5671 5675 5677 5683 5688
5491 5492 5496 5500 5506 5513 5526 5536 5546 5544 5543 5544 5546 5540 5575 5591 5595 5600 5604 5604 5604 5606 5605 5600 5591 5588 5584 5581 5581 5582 5588 5592 5601 5621 5617 5613 5619 5652 5665 5666 5675 5680 5673 5678 5685
5482 5483 5487 5492 5497 5506 5517 5524 5526 5534 5536 5539 5552 5555 5572 5582 5588 5592 5595 5596 5594 5593 5583 5586 5576 5576 5576 5582 5587 5588 5587 5584 5596 5615 5606 5608 5615 5639 5658 5659 5667 5671 5675 5677 5685
5475 5477 5479 5484 5489 5495 5502 5503 5491 5487 5519 5540 5553 5558 5565 5564 5568 5581 5586 5579 5578 5571 5573 5572 5571 5575 5579 5577 5576 5576 5579 5585 5601 5611 5606 5604 5609 5636 5652 5662 5671 5682 5680 5683 5687
5467 5470 5473 5477 5483 5483 5482 5485 5486 5488 5497 5549 5555 5562 5568 5563 5559 5572 5576 5574 5571 5562 5562 5561 5572 5578 5574 5573 5571 5572 5571 5579 5590 5596 5597 5600 5608 5628 5658 5667 5676 5684 5688 5691 5692
5461 5463 5468 5470 5474 5470 5475 5478 5482 5484 5489 5541 5555 5563 5561 5561 5555 5572 5573 5571 5562 5558 5555 5555 5565 5567 5564 5566 5569 5565 5577 5580 5585 5581 5570 5600 5583 5620 5645 5657 5671 5679 5678 5683 5689
5453 5455 5455 5458 5454 5456 5463 5469 5476 5481 5486 5551 5557 5567 5563 5558 5567 5564 5567 5563 5554 5553 5548 5554 5556 5554 5555 5562 5569 5568 5571 5566 5576 5575 5573 5585 5579 5619 5643 5646 5662 5674 5679 5683 5695
5445 5447 5448 5446 5447 5453 5454 5461 5468 5472 5484 5536 5552 5548 5549 5555 5558 5558 5556 5558 5554 5548 5546 5549 5557 5558 5558 5566 5568 5565 5559 5562 5569 5567 5555 5584 5585 5614 5632 5651 5670 5684 5686 5685 5691
5437 5437 5437 5436 5435 5445 5444 5447 5450 5454 5514 5522 5526 5533 5538 5543 5545 5548 5544 5541 5535 5530 5529 5546 5552 5556 5559 5555 5560 5553 5539 5542 5547 5546 5560 5595 5590 5625 5642 5651 5662 5674 5687 5688 5691
5428 5428 5428 5431 5434 5432 5427 5437 5431 5484 5494 5508 5510 5520 5530 5538 5539 5540 5534 5529 5533 5534 5529 5533 5540 5549 5558 5555 5552 5551 5537 5539 5547 5555 5562 5591 5588 5619 5642 5653 5664 5679 5689 5699 5693
5417 5417 5417 5424 5423 5419 5414 5412 5446 5461 5477 5478 5496 5507 5512 5518 5522 5530 5527 5529 5533 5531 5525 5530 5544 5556 5556 5558 5550 5541 5534 5537 5541 5548 5555 5575 5607 5635 5636 5641 5651 5666 5683 5691 5695
5401 5400 5403 5410 5408 5404 5402 5411 5422 5448 5450 5456 5463 5479 5479 5490 5504 5510 5520 5534 5532 5532 5534 5537 5535 5552 5555 5552 5542 5532 5539 5533 5538 5549 5550 5578 5592 5589 5611 5624 5634 5642 5657 5678 5686
5385 5382 5390 5395 5393 5385 5383 5392 5412 5426 5430 5437 5445 5454 5475 5470 5488 5501 5517 5521 5525 5529 5528 5530 5534 5535 5549 5543 5542 5530 5535 5532 5541 5548 5557 5564 5573 5591 5596 5608 5615 5627 5646 5661 5669
5368 5348 5373 5374 5361 5359 5360 5381 5393 5401 5407 5413 5429 5438 5449 5460 5469 5493 5501 5518 5522 5524 5520 5521 5521 5517 5534 5552 5555 5546 5538 5538 5541 5545 5552 5556 5567 5585 5590 5599 5608 5617 5630 5645 5651
5355 5346 5353 5348 5315 5344 5345 5357 5365 5374 5381 5394 5411 5426 5441 5444 5438 5480 5493 5513 5514 5516 5513 5516 5511 5509 5530 5541 5546 5539 5538 5535 5539 5541 5551 5555 5568 5577 5584 5586 5594 5604 5612 5621 5626
5340 5322 5323 5329 5330 5330 5327 5345 5350 5363 5373 5381 5396 5408 5416 5432 5449 5455 5478 5497 5499 5508 5509 5511 5503 5503 5499 5512 5517 5522 5528 5539 5539 5538 5546 5553 5570 5570 5568 5570 5574 5582 5591 5600 5604
5325 5321 5316 5291 5322 5328 5333 5342 5350 5358 5374 5378 5385 5393 5394 5412 5436 5437 5470 5481 5488 5495 5497 5493 5491 5495 5501 5507 5512 5521 5524 5529 5528 5536 5538 5559 5562 5573 5565 5561 5562 5569 5578 5583 5585
5315 5307 5311 5312 5321 5325 5330 5339 5349 5346 5364 5375 5380 5382 5391 5400 5424 5428 5459 5469 5477 5480 5486 5482 5476 5480 5485 5507 5508 5515 5529 5536 5534 5532 5532 5545 5555 5567 5557 5556 5554 5556 5562 5569 5568
5311 5311 5306 5310 5313 5315 5327 5338 5341 5350 5367 5378 5377 5371 5382 5402 5415 5424 5434 5447 5457 5470 5473 5475 5469 5465 5479 5488 5492 5505 5529 5534 5542 5536 5539 5540 5556 5556 5553 5556 5553 5545 5548 5547 5547